DateTimeUTC,F1_A11,F1_S11,BsB_S11,BsG_S11,BsR_S11,BbsB_S11,BbsG_S11,BbsR_S11,BaB_A11,BaG_A11,BaR_A11,Tu_S11,T_S11,Uu_S11,U_S11,P_S11,T1_A11
2021-10-04T23:00:00Z,00000200,21000000,,,,,,,0000.51,0000.22,0000.23,16.0,23.3,,00.0,0668.3,30.7
2021-10-04T23:01:00Z,00000200,21000000,,,,,,,0000.21,0000.77,0000.49,16.0,23.3,,00.0,0668.3,30.7
2021-10-04T23:02:00Z,00000200,21000000,,,,,,,0000.51,0000.49,0000.50,16.0,23.3,,00.0,0668.3,30.7
2021-10-04T23:03:00Z,00000200,61000000,,,,,,,0138.00,0127.28,0102.71,16.0,23.3,,00.0,0668.3,30.7
2021-10-04T23:04:00Z,00000200,41000000,0013.17,0009.09,0006.17,0002.51,0002.44,0002.05,0166.39,0155.39,0126.73,16.4,23.1,,00.0,0669.3,30.7
2021-10-04T23:05:00Z,00000200,01000000,0001.69,0001.12,0000.68,0000.41,0000.48,0000.36,0024.77,0023.76,0019.45,16.5,23.1,,00.0,0669.4,30.7
2021-10-04T23:06:00Z,00000200,01000000,0000.74,0000.23,0000.10,0000.15,0000.29,0000.15,0005.31,0004.72,0004.02,16.5,23.1,,00.0,0669.4,30.7
2021-10-04T23:07:00Z,00000200,01000000,0000.74,0000.18,-000.04,0000.01,0000.08,-000.18,0001.30,0001.11,0000.63,16.6,23.1,,00.0,0669.4,30.7
2021-10-04T23:08:00Z,00000200,01000000,0000.57,0000.20,-000.02,-000.41,-000.08,-000.02,0000.46,0000.79,0000.69,16.6,23.1,,00.0,0669.4,30.7
2021-10-04T23:09:00Z,00000200,01000000,0000.93,0000.05,0000.13,-000.11,0000.01,-000.09,0000.48,0000.36,0000.21,16.6,23.1,,00.0,0669.4,30.7
2021-10-04T23:10:00Z,00000200,01000000,0000.21,-000.06,0000.06,0000.17,0000.33,-000.15,0000.65,0000.31,0000.25,16.6,23.1,,00.0,0669.4,30.7
2021-10-04T23:11:00Z,00000200,01000000,0000.27,-000.05,-000.02,0000.15,0000.14,0000.14,0000.53,0000.66,0000.54,16.5,23.1,,00.0,0669.4,30.7
2021-10-04T23:12:00Z,00000200,01000000,0000.22,0000.21,0000.07,0000.20,0000.14,0000.16,0000.78,0000.58,0000.47,16.4,23.0,,00.0,0669.4,30.7
2021-10-04T23:13:00Z,00000200,01000000,0001.21,-000.00,0000.26,-000.19,0000.21,-000.26,0000.81,0000.84,0000.50,16.3,23.0,,00.0,0669.3,30.7
2021-10-04T23:14:00Z,00000200,01000000,0000.49,0000.10,0000.14,0000.20,0000.09,-000.00,0000.62,0000.49,0000.41,16.2,23.0,,00.0,0669.3,30.7
2021-10-04T23:15:00Z,00000200,01000000,0001.36,0000.09,0000.23,-000.16,0000.04,0000.03,0000.46,0000.71,0000.52,16.2,22.9,,00.0,0669.3,30.7
2021-10-04T23:16:00Z,00000200,01000000,0000.44,0000.16,-000.02,0000.22,0000.01,0000.04,0000.56,0000.37,0000.63,16.2,22.9,,00.0,0669.3,30.7
2021-10-04T23:17:00Z,00000200,01000000,0000.21,0000.41,0000.09,-000.52,0000.10,0000.08,0000.79,0000.76,0000.31,16.2,22.9,,00.0,0669.4,30.7
2021-10-04T23:18:00Z,00000200,01000000,0000.08,0000.23,-000.06,-000.47,0000.05,-000.20,0000.24,0000.22,0000.62,16.2,22.9,,00.0,0669.4,30.7
2021-10-04T23:19:00Z,00000200,01000000,0000.46,0000.27,-000.08,-000.13,0000.55,0000.02,0000.37,0000.05,-000.13,16.3,22.9,,00.0,0669.4,30.7
2021-10-04T23:20:00Z,00000200,01000000,0000.26,0000.05,0000.18,-000.23,0000.07,0000.29,0000.24,0000.55,0000.12,16.4,23.0,,00.0,0669.4,30.7
2021-10-04T23:21:00Z,00000200,01000000,0000.63,-000.05,0000.23,-000.03,0000.30,0000.41,0000.53,0000.29,0000.39,16.4,23.0,,00.0,0669.4,30.7
2021-10-04T23:22:00Z,00000200,01000000,0000.12,0000.21,0000.03,0000.32,0000.13,0000.25,0000.12,0000.32,0000.10,16.4,23.0,,00.0,0669.4,30.7
2021-10-04T23:23:00Z,00000200,01000000,0000.68,0000.18,-000.15,0000.09,0000.31,0000.31,0000.39,-000.02,0000.34,16.5,23.0,,00.0,0669.4,30.7
2021-10-04T23:24:00Z,00000200,01000000,0000.38,0000.16,0000.21,-000.58,0000.48,0000.35,0000.18,0000.52,0000.05,16.4,23.0,,00.0,0669.4,30.7
2021-10-04T23:25:00Z,00000200,01000000,0000.69,0000.08,-000.00,-000.53,0000.05,0000.09,0000.53,0000.59,-000.02,16.3,22.9,,00.0,0669.4,30.7
2021-10-04T23:26:00Z,00000200,01000000,0000.86,0000.21,-000.03,-000.60,0000.20,-000.17,0000.33,0000.27,0000.66,16.2,22.9,,00.0,0669.3,30.7
2021-10-04T23:27:00Z,00000200,01000000,-000.22,-000.06,-000.09,-000.56,0000.06,0000.00,0000.12,0000.09,0000.00,16.1,22.8,,00.0,0669.3,30.7
2021-10-04T23:28:00Z,00000200,01000000,0000.43,-000.11,-000.11,0000.22,0000.17,0000.32,0000.68,0000.55,0000.32,16.0,22.8,,00.0,0669.3,30.7
2021-10-04T23:29:00Z,00000200,01000000,0000.30,0000.09,0000.10,0000.11,0000.35,0000.30,0000.20,0000.33,0000.43,16.0,22.7,,00.0,0669.3,30.6
2021-10-04T23:30:00Z,00000200,01000000,0000.84,0000.20,0000.19,0000.30,0000.01,0000.05,0000.56,0000.12,0000.06,15.9,22.7,,00.0,0669.3,30.6
2021-10-04T23:31:00Z,00000200,01000000,-000.04,0000.09,-000.02,-000.44,-000.07,-000.04,0000.05,0000.21,-000.11,16.0,22.7,,00.0,0669.3,30.6
2021-10-04T23:32:00Z,00000200,01000000,0000.41,-000.22,0000.13,-000.26,-000.15,0000.13,0000.46,0000.18,0000.37,16.0,22.7,,00.0,0669.3,30.6
2021-10-04T23:33:00Z,00000200,01000000,-000.09,0000.17,-000.35,-000.01,0000.06,0000.15,0000.22,0000.59,0000.52,16.0,22.7,,00.0,0669.3,30.7
2021-10-04T23:34:00Z,00000200,01000000,0001.17,0000.04,0000.04,-000.10,-000.08,0000.00,0000.24,0000.01,0000.07,16.1,22.7,,00.0,0669.4,30.7
2021-10-04T23:35:00Z,00000200,01000000,0000.82,0000.19,-000.17,0000.17,0000.22,-000.28,0000.40,0000.81,0000.38,16.1,22.8,,00.0,0669.4,30.7
2021-10-04T23:36:00Z,00000200,01000000,-000.45,0000.07,0000.35,-000.37,-000.15,0000.09,0000.59,0000.05,0000.20,16.2,22.8,,00.0,0669.4,30.7
2021-10-04T23:37:00Z,00000200,01000000,0000.95,0000.26,-000.14,-000.39,0000.18,-000.07,0000.77,0000.69,0000.46,16.3,22.8,,00.0,0669.4,30.7
2021-10-04T23:38:00Z,00000200,01000000,0000.45,-000.05,-000.05,0000.12,0000.13,0000.14,0000.12,0000.44,-000.08,16.3,22.8,,00.0,0669.4,30.7
2021-10-04T23:39:00Z,00000200,01000000,0000.27,0000.36,0000.03,0000.18,-000.01,0000.04,0000.62,0000.44,0000.67,16.3,22.8,,00.0,0669.4,30.7
2021-10-04T23:40:00Z,00000200,01000000,0000.40,-000.06,0000.05,0000.06,0000.27,0000.05,0000.43,0000.25,0000.48,16.4,22.9,,00.0,0669.4,30.7
2021-10-04T23:41:00Z,00000200,01000000,0000.16,0000.15,-000.04,0000.08,0000.13,0000.19,0000.36,0000.28,0000.04,16.4,22.9,,00.0,0669.4,30.7
2021-10-04T23:42:00Z,00000200,01000000,0000.37,-000.08,-000.02,0000.21,-000.22,0000.10,0000.25,0000.59,0000.33,16.3,22.9,,00.0,0669.3,30.7
2021-10-04T23:43:00Z,00000200,01000000,0000.02,0000.93,0000.14,0000.24,0000.40,0000.07,0005.41,0004.93,0004.00,16.2,22.8,,00.0,0669.3,30.7
2021-10-04T23:44:00Z,00000200,01000000,0002.87,0001.26,0000.82,0000.71,0000.32,0000.67,0019.65,0018.21,0014.79,16.2,22.8,,00.0,0669.3,30.7
2021-10-04T23:45:00Z,00000200,01000000,0003.14,0002.01,0001.11,0000.25,0000.55,0000.35,0029.83,0027.54,0022.48,16.1,22.7,,00.0,0669.3,30.7
2021-10-04T23:46:00Z,00000200,01000000,0005.11,0003.85,0002.79,0001.02,0001.27,0000.82,0054.44,0050.46,0040.69,16.2,22.7,,00.0,0669.3,30.7
2021-10-04T23:47:00Z,00000200,01000000,0008.09,0005.26,0003.87,0001.64,0001.45,0001.06,0079.99,0075.14,0061.21,16.2,22.8,,00.0,0669.3,30.7
2021-10-04T23:48:00Z,00000200,01000000,0008.14,0005.67,0004.10,0001.07,0001.55,0001.03,0086.59,0080.38,0065.35,16.2,22.8,,00.0,0669.3,30.7
2021-10-04T23:49:00Z,00000200,01000000,0009.50,0006.49,0004.08,0001.80,0001.59,0001.13,0104.87,0098.26,0080.45,16.3,22.8,,00.0,0669.3,30.7
2021-10-04T23:50:00Z,00000200,01000000,0007.72,0005.88,0003.48,0001.39,0001.76,0001.34,0090.08,0083.77,0068.21,16.3,22.8,,00.0,0669.3,30.7
2021-10-04T23:51:00Z,00000200,01000000,0006.58,0004.47,0002.78,0001.53,0001.28,0000.91,0068.84,0063.82,0052.49,16.3,22.8,,00.0,0669.3,30.7
2021-10-04T23:52:00Z,00000200,01000000,0003.98,0002.55,0001.84,0000.59,0000.84,0000.41,0038.38,0036.15,0028.75,16.4,22.8,,00.0,0669.3,30.7
2021-10-04T23:53:00Z,00000200,01000000,0002.93,0002.07,0001.58,-000.12,0000.60,0000.44,0030.20,0028.14,0023.59,16.4,22.9,,00.0,0669.3,30.7
2021-10-04T23:54:00Z,00000200,01000000,0002.46,0001.25,0000.99,0000.06,0000.71,0000.49,0022.87,0021.49,0017.19,16.5,22.9,,00.0,0669.3,30.7
2021-10-04T23:55:00Z,00000200,01000000,0002.06,0001.05,0000.56,0000.36,0000.25,0000.30,0016.16,0015.24,0012.51,16.5,22.9,,00.0,0669.3,30.7
2021-10-04T23:56:00Z,00000200,01000000,0001.49,0001.16,0000.64,0000.15,0000.46,0000.36,0016.49,0015.44,0012.39,16.4,22.9,,00.0,0669.3,30.7
2021-10-04T23:57:00Z,00000200,41000000,,,,,,,0006.58,0006.00,0005.21,16.4,22.9,,00.0,0669.3,30.7
2021-10-04T23:58:00Z,00000200,61000000,,,,,,,0000.24,0000.48,-000.03,15.9,23.0,,00.0,0668.2,30.7
2021-10-04T23:59:00Z,00000200,21000000,,,,,,,0000.65,0000.41,0000.58,15.8,23.1,,00.0,0668.2,30.7
